Regional Weather Roundup
Issued by NWS New Orleans/Baton Rouge, LA

Home | Current Version | Previous Version | Text Only | Print | Product List | Glossary On
Versions: 1 2 3 4 5 6 7 8 9 10 11 12 13 14 15 16 17 18 19 20 21 22 23 24 25 26 27 28 29 30 31 32 33 34 35 36 37 38 39 40 41 42 43 44 45 46 47 48 49 50
000
ASUS44 KLIX 251012
RWRLIX
NEW ORLEANS REGIONAL WEATHER ROUNDUP
NATIONAL WEATHER SERVICE NEW ORLEANS LA
500 AM CDT MON MAY 25 2015

NOTE: "FAIR" INDICATES FEW OR NO CLOUDS BELOW 12,000 FEET WITH NO
      SIGNIFICANT WEATHER AND/OR OBSTRUCTIONS TO VISIBILITY.
      SKY/WX - SKY CONDITION AND SIGNIFICANT WEATHER.
      TMP - AIR TEMPERATURE.     DP    - DEWPOINT TEMPERATURE.
      RH  - RELATIVE HUMIDITY.   PRES  - PRESSURE.
      HI  - HEAT INDEX.          WCI   - WIND CHILL INDEX.

*  THESE STATIONS ARE NOT NWS OR FAA STATIONS AND ARE NOT UNDER
   NWS QUALITY CONTROL.

LAZ038-040-048-061>063-065>067-069-251100-
SOUTHEAST LOUISIANA

CITY           SKY/WX    TMP DP  RH WIND       PRES   REMARKS
N.O. AUDUBON     N/A     76  73  88 MISG        N/A
N.O. INTL ARPT CLOUDY    77  72  84 SE9       30.02R
N.O. LAKEFRONT CLOUDY    78  71  79 S5        30.04R
SLIDELL        CLOUDY    75  74  96 CALM      30.02F
BATON ROUGE    MOCLDY    70  69  97 CALM      30.02R
BOOTHVILLE     CLOUDY    78  76  93 SE3       30.05R
BELLE CHASSE   LGT RAIN  74  68  81 S13       30.03R
BOGALUSA*        N/A     75  72  88 CALM      30.05R
GALLIANO*      CLOUDY    79  74  83 S3        30.03S
NEW ROADS*     PTSUNNY   70  70  99 SE3       30.02R
GONZALES*        N/A     73  73 100 CALM      30.01S
HAMMOND*       CLOUDY    73  70  88 CALM      30.04R
HOUMA*         CLOUDY    76  74  95 SE5       30.02S
PORT FOURCHON* MOSUNNY   81  75  83 S6        30.04R

$$

MSZ070-080>082-251100-
SOUTHERN MISSISSIPPI

CITY           SKY/WX    TMP DP  RH WIND       PRES   REMARKS
MCCOMB         CLOUDY    70  70 100 SE5       30.03S
GULFPORT       CLOUDY    80  75  84 VRB6G17   30.05R THUNDER
BILOXI         CLOUDY    80  75  87 S14       30.04F
PASCAGOULA     CLOUDY    77  74  90 SE7       30.06S

$$

COASTAL OBSERVATIONS
LAKE AND NEARSHORE STATIONS

STATION/POSITION TIME  TEMP    WIND        PRES    WAVE
                       AIR SEA DIR/SP/G            HT/PER
                 (UTC) (F)     (DEG/KT/KT) (MB)    (FT/S)
PASCAGOULA       0900   80     140/ 12/ 16 1017.3
WAVELAND YACHT   0900   81 80  140/ 22/ 28 1017.1
GRAND ISLE       0900   81 82  170/  8/ 13 1016.8
SOUTHWEST PASS   0900   80 75  160/ 11/ 16 1017.3
NEW CANAL        0900   75 79   CALM  /  4 1015.8
SHELL BEACH      0900   80 83  170/ 10/ 13 1016.6

OFFSHORE STATIONS

STATION/POSITION TIME  TEMP    WIND        PRES    WAVE
                       AIR SEA DIR/SP/G            HT/PER
                 (UTC) (F)     (DEG/KT/KT) (MB)    (FT/S)
64 S DAUPHIN ISL 0950   77 78  130/ 19/ 23 1018.2    6/ 6

$$




USA.gov is the U.S. government's official web portal to all federal, state and local government web resources and services.